Flag for China Weather past 2 weeks in Shanghai, Shanghai Municipality, China

Now
82 °F

Clear.


Feels Like: 89 °F
Forecast: 80 / 91 °F
Wind: 6 mph from Southeast

Location: Shanghai Hongqiao Airport

Current Time: Jul 28, 2014 at 11:33:14 PM

Latest Report: Jul 28, 2014 at 11:00 PM


Visibility: 10 mi

Pressure: 29.68 "Hg

Humidity: 79%

Dew point: 75 °F

Location of ShanghaiLocation

Historic Weather in Shanghai — Graph

°F

Shanghai temperature yesterday

Maximum temperature yesterday: 91 °F (at 12:30 PM)
Minimum temperature yesterday: 75 °F (at 7:00 PM)
Average temperature yesterday: 83 °F

Past Weeks' High & Low Weather Summary

 TemperatureHumidityPressure
High97 °F (Jul 20, 1:00 PM)100% (Jul 15, 8:00 AM)29.86 "Hg (Jul 15, 8:00 AM)
Low72 °F (Jul 15, 8:30 AM)47% (Jul 22, 4:00 PM)29.39 "Hg (Jul 25, 2:30 AM)
Average84 °F76%29.74 "Hg
* Reported Jul 13 10:00 PM — Jul 28 10:30 PM, Shanghai, Weather by CustomWeather, © 2014

Note: Actual official high and low records may vary slightly from our data, if they occured in-between our weather recording intervals... More about our weather records

Advertising

Shanghai weather history for previous 24 hours

 ConditionsComfort  
Time TempWeatherWind HumidityBarometerVisibility
10:30 PM
Jul 28
82 °FClear.6 mph84%29.71 "Hg10 mi
10:00 PM82 °FClear.6 mph84%29.71 "Hg10 mi
9:30 PM84 °FClear.8 mph79%29.71 "Hg10 mi
9:00 PM84 °FClear.8 mph79%29.71 "Hg10 mi
8:30 PM84 °FClear.8 mph79%29.71 "Hg5 mi
8:00 PM84 °FClear.8 mph79%29.68 "Hg5 mi
7:30 PM86 °FClear.8 mph75%29.68 "Hg4 mi
7:00 PM86 °FHaze.8 mph75%29.68 "Hg3 mi
6:30 PM88 °FScattered clouds.8 mph70%29.65 "Hg4 mi
6:00 PM88 °FScattered clouds.8 mph70%29.65 "Hg5 mi
5:30 PM90 °FScattered clouds.8 mph63%29.65 "HgN/A
5:00 PM90 °FScattered clouds.8 mph63%29.65 "HgN/A
4:30 PM90 °FScattered clouds.10 mph63%29.65 "HgN/A
4:00 PM91 °FScattered clouds.3 mph56%29.65 "HgN/A
3:30 PM91 °FScattered clouds.3 mph56%29.68 "HgN/A
3:00 PM91 °FScattered clouds.6 mph56%29.68 "HgN/A
2:30 PM93 °FScattered clouds.1 mph49%29.68 "HgN/A
2:00 PM91 °FScattered clouds.3 mph56%29.68 "HgN/A
1:30 PM91 °FScattered clouds.6 mph59%29.71 "HgN/A
1:00 PM91 °FScattered clouds.3 mph59%29.71 "HgN/A
12:30 PM91 °FScattered clouds.3 mph56%29.71 "HgN/A
12:00 PM90 °FScattered clouds.3 mph63%29.71 "HgN/A
11:30 AM88 °FScattered clouds.1 mph62%29.74 "HgN/A
11:00 AM86 °FScattered clouds.6 mph66%29.74 "HgN/A
10:30 AM86 °FScattered clouds.3 mph70%29.74 "HgN/A
10:00 AM84 °FScattered clouds.3 mph70%29.77 "HgN/A
9:30 AM84 °FPassing clouds.3 mph74%29.77 "HgN/A
9:00 AM82 °FPassing clouds.6 mph79%29.77 "Hg4 mi
8:30 AM81 °FPassing clouds.3 mph89%29.77 "Hg4 mi
8:00 AM81 °FFog.3 mph84%29.77 "Hg3 mi
7:30 AM79 °FFog.3 mph84%29.77 "Hg3 mi
7:00 AM79 °FFog.No wind89%29.77 "Hg2 mi
6:30 AM77 °FFog.No wind94%29.74 "Hg2 mi
6:00 AM77 °FFog.No wind94%29.74 "Hg2 mi
5:30 AM77 °FFog.1 mph94%29.74 "Hg2 mi
5:00 AM77 °FFog.3 mph94%29.74 "Hg2 mi
4:30 AM77 °FFog.3 mph94%29.74 "Hg3 mi
4:00 AM77 °FClear.3 mph94%29.74 "Hg4 mi
3:30 AM77 °FClear.6 mph94%29.74 "Hg4 mi
3:00 AM77 °FClear.3 mph89%29.74 "Hg4 mi
2:30 AM77 °FPassing clouds.3 mph89%29.74 "Hg4 mi
2:00 AM75 °FPassing clouds.3 mph94%29.74 "Hg4 mi
1:30 AM75 °FPassing clouds.6 mph94%29.74 "Hg4 mi
1:00 AM75 °FPassing clouds.8 mph94%29.74 "Hg5 mi
12:30 AM75 °FPassing clouds.8 mph94%29.74 "HgN/A
12:00 AM75 °FPassing clouds.6 mph94%29.74 "HgN/A
11:30 PM
Jul 27
75 °FPassing clouds.6 mph94%29.74 "HgN/A
11:00 PM75 °FLight rain. Clear.3 mph94%29.74 "HgN/A
Weather by CustomWeather, © 2014

See weather overviewHow to use our weather pages